Location: Baumgarten
(49.0970°N, 12.7493°E)
Time: 08:17:11
(UTC+00:00)

Meteor 2-3 Rocket - Pass Details

Date: 05 July 2020
Orbit: 843 x 884 km, 81.2° (Epoch: 04 August)

Event Time Altitude Azimuth Distance (km) Brightness Sun altitude
Exits shadow 23:21:01 30° 201° (SSW) 1,498 4.5 -18.2°
Maximum altitude 23:23:57 77° 283° (WNW) 889 3.8 -18.2°
Drops below altitude 10° 23:29:42 10° 9° (N) 2,523 7.4 -18.2°
Sets 23:32:10 0° 12° (NNE) 3,471 8.6 -18.1°
